Tracking 18980 objects as of 20-Feb-2018
HD Live streaming from Space Station
objects crossing your sky now

FENGYUN 1C DEB

Track FENGYUN 1C DEB now!
10-day predictions


NORAD ID: 37017
Int'l Code: 1999-025ECZ
Perigee: 579.5 km
Apogee: 1,094.7 km
Inclination: 98.7 °
Period: 101.5 minutes
Semi major axis: 7208 km
RCS: 0.0079 m2 (small)
Launch date: May 10, 1999
Source: People's Republic of China (PRC)
Launch site: Taiyaun Space Center, China (TSC)

Note: This is SATELLITE DEBRIS
aabbcc
Your satellite tracking list
Your tracking list is empty




NASA's NSSDC Master Catalog

Two Line Element Set (TLE):
1 37017U 99025ECZ 18047.58932704 +.00000770 +00000-0 +21034-3 0  9998
2 37017 098.7261 326.7909 0357410 016.1342 345.0873 14.18641011205190
Source of the keplerian elements: AFSPC